Weather History for West Palm Beach, FL

Change the Weather History Date:

Tuesday, April 23, 2013

  Actual Average Record
Temperature  
Mean Temperature 75 °F 75 °F  
Max Temperature 82 °F 83 °F 95 °F (1971)
Min Temperature 67 °F 67 °F 47 °F (1910)
Degree Days  
Heating Degree Days 0 0  
Month to date heating degree days 0 0  
Since 1 July heating degree days 164 229  
Cooling Degree Days 10 10  
Month to date cooling degree days 272 193  
Year to date cooling degree days 743 621  
Growing Degree Days 24 (Base 50)    
Moisture  
Dew Point 63 °F    
Average Humidity 76    
Maximum Humidity 100    
Minimum Humidity 51    
Precipitation  
Precipitation 0.00 in 0.12 in 2.00 in (1927)
Month to date precipitation 3.92 2.94  
Year to date precipitation 8.08 13.48  
Snow  
Snow 0.00 in - - ()
Month to date snowfall 0.0  
Since 1 July snowfall 0.0  
Snow Depth 0.00 in    
Sea Level Pressure  
Sea Level Pressure 30.03 in    
Wind  
Wind Speed 12 mph (NNE)    
Max Wind Speed 22 mph    
Max Gust Speed 28 mph    
Visibility 10 miles    
Events      
T = Trace of Precipitation, MM = Missing Value Source: NWS Daily Summary

Daily Weather History Graph

Daily Weather History Graph

Search for Another Location

Airport:

Trip Planner

Search our weather history database for the weather conditions in past years. The results will help you decide how hot, cold, wet, or windy it might be!

Date:

Astronomy

Apr. 23, 2013 Rise Set
Actual Time 6:48 AM EDT 7:48 PM EDT
Civil Twilight 6:24 AM EDT 8:12 PM EDT
Nautical Twilight 5:56 AM EDT 8:41 PM EDT
Astronomical Twilight 5:27 AM EDT 9:10 PM EDT
Moon 5:51 PM EDT (4/23) 5:03 AM EDT (4/23)
Length of Visible Light 13h 48m
Length of Day
12h 59m
Waxing Gibbous, 94% of the Moon is Illuminated
Apr 23
Waxing Gibbous
Apr 25
Full
May 2
Last Quarter
May 9
New
May 18
First Quarter

Hourly Weather History & Observations

Time (EDT) Temp. Heat Index Dew Point Humidity Pressure Visibility Wind Dir Wind Speed Gust Speed Precip Events Conditions
12:53 AM 71.1 °F - 64.9 °F 81% 30.01 in 10.0 mi NNW 5.8 mph - N/A   Scattered Clouds
1:53 AM 70.0 °F - 64.9 °F 84% 29.99 in 10.0 mi NNW 4.6 mph - N/A   Partly Cloudy
2:53 AM 69.1 °F - 64.0 °F 84% 29.97 in 10.0 mi NNW 4.6 mph - N/A   Scattered Clouds
3:53 AM 66.9 °F - 64.0 °F 90% 29.96 in 10.0 mi West 5.8 mph - N/A   Partly Cloudy
4:53 AM 66.9 °F - 66.0 °F 97% 29.96 in 10.0 mi WNW 5.8 mph - N/A   Partly Cloudy
5:53 AM 66.9 °F - 64.9 °F 93% 29.96 in 10.0 mi NW 6.9 mph - N/A   Partly Cloudy
6:53 AM 72.0 °F - 64.0 °F 76% 29.98 in 10.0 mi NNE 6.9 mph - N/A   Scattered Clouds
7:53 AM 75.0 °F - 64.9 °F 71% 30.00 in 10.0 mi NNE 11.5 mph - N/A   Scattered Clouds
8:53 AM 77.0 °F - 63.0 °F 62% 30.02 in 10.0 mi NNE 11.5 mph 23.0 mph N/A   Scattered Clouds
9:53 AM 78.1 °F - 64.9 °F 64% 30.04 in 10.0 mi NE 18.4 mph 23.0 mph N/A   Scattered Clouds
10:53 AM 79.0 °F - 64.0 °F 60% 30.06 in 10.0 mi NE 15.0 mph - N/A   Mostly Cloudy
11:53 AM 81.0 °F 82.5 °F 64.0 °F 56% 30.06 in 10.0 mi NE 18.4 mph - N/A   Mostly Cloudy
12:53 PM 82.0 °F 83.4 °F 64.0 °F 54% 30.05 in 10.0 mi NNE 16.1 mph 24.2 mph N/A   Mostly Cloudy
1:53 PM 81.0 °F 82.2 °F 63.0 °F 54% 30.04 in 10.0 mi ENE 18.4 mph 24.2 mph N/A   Mostly Cloudy
2:53 PM 81.0 °F 81.9 °F 62.1 °F 52% 30.04 in 10.0 mi NNE 12.7 mph 24.2 mph N/A   Mostly Cloudy
3:53 PM 81.0 °F 81.7 °F 61.0 °F 50% 30.03 in 10.0 mi NNE 15.0 mph - N/A   Scattered Clouds
4:53 PM 80.1 °F 81.1 °F 61.0 °F 52% 30.02 in 10.0 mi NNE 13.8 mph 23.0 mph N/A   Scattered Clouds
5:53 PM 79.0 °F - 61.0 °F 54% 30.03 in 10.0 mi NE 17.3 mph 20.7 mph N/A   Scattered Clouds
6:53 PM 77.0 °F - 61.0 °F 58% 30.03 in 10.0 mi NNE 16.1 mph - N/A   Scattered Clouds
7:53 PM 75.0 °F - 60.1 °F 60% 30.05 in 10.0 mi NNE 12.7 mph - N/A   Scattered Clouds
8:53 PM 75.0 °F - 61.0 °F 62% 30.06 in 10.0 mi NE 11.5 mph - N/A   Scattered Clouds
9:53 PM 73.9 °F - 60.1 °F 62% 30.08 in 10.0 mi NE 11.5 mph - N/A   Scattered Clouds
10:53 PM 75.0 °F - 57.9 °F 55% 30.09 in 10.0 mi NE 10.4 mph - N/A   Scattered Clouds
11:53 PM 73.9 °F - 57.9 °F 57% 30.09 in 10.0 mi NE 10.4 mph - N/A   Scattered Clouds